MDT,Max TemperatureF,Mean TemperatureF,Min TemperatureF,Max Dew PointF,MeanDew PointF,Min DewpointF,Max Humidity, Mean Humidity, Min Humidity, Max Sea Level PressureIn, Mean Sea Level PressureIn, Min Sea Level PressureIn, Max VisibilityMiles, Mean VisibilityMiles, Min VisibilityMiles, Max Wind SpeedMPH, Mean Wind SpeedMPH, Max Gust SpeedMPH,PrecipitationIn, CloudCover, Events, WindDirDegrees
2012-10-1,77,57,37,26,24,22,57,30,13,30.13,30.04,29.97,10,10,10,8,2,,0.00,0,,249
2012-10-2,80,58,36,27,20,14,57,28,10,30.06,29.95,29.87,10,10,10,17,3,24,0.00,0,,274
2012-10-3,81,57,34,24,18,15,50,23,9,30.18,29.95,29.90,10,10,10,18,5,25,0.00,0,,254
2012-10-4,77,57,39,30,24,20,55,25,13,30.13,29.97,29.91,10,10,10,22,8,33,0.00,0,,235
2012-10-5,73,60,48,28,23,15,43,25,11,30.00,29.92,29.85,10,10,10,20,6,29,0.00,0,,257
2012-10-6,73,57,43,25,20,13,35,24,13,29.92,29.84,29.75,10,10,10,17,4,28,0.00,0,,267
2012-10-7,69,52,36,26,8,-6,45,21,5,30.01,29.91,29.79,10,10,10,14,4,24,0.00,0,,295
2012-10-8,71,49,27,23,12,1,41,24,11,30.12,29.99,29.91,10,10,10,16,3,23,0.00,0,,261
2012-10-9,72,58,43,32,26,19,58,34,14,30.01,29.93,29.86,10,10,10,13,3,21,0.00,0,,249
2012-10-10,73,52,32,30,21,14,59,33,11,30.13,29.98,29.89,10,10,10,14,4,21,0.00,0,,195
2012-10-11,72,51,33,45,30,18,83,48,21,30.05,29.96,29.90,10,10,10,15,3,25,0.00,4,Rain,204
2012-10-12,57,46,36,46,37,27,87,65,38,30.14,29.94,29.82,10,10,7,31,10,43,0.06,4,Rain,201
2012-10-13,60,44,30,33,31,27,89,65,36,30.19,30.11,30.04,10,10,10,10,3,,0.00,2,,281
2012-10-14,68,47,28,35,32,26,92,61,28,30.31,30.20,30.12,10,10,6,8,2,,0.00,0,,24
2012-10-15,73,50,28,34,27,19,92,51,13,30.20,30.08,29.96,10,10,10,13,2,16,0.00,0,,251
2012-10-16,73,50,28,29,19,7,81,39,9,30.04,29.90,29.77,10,10,10,15,4,22,0.00,0,,236
2012-10-17,71,56,36,35,17,-2,60,25,6,29.99,29.84,29.72,10,10,10,16,6,21,0.00,0,,359
2012-10-18,71,49,28,12,10,6,47,24,9,30.15,30.05,29.99,10,10,10,17,5,24,0.00,0,,352
2012-10-19,75,52,28,13,11,7,51,31,7,30.14,30.01,29.89,10,10,10,9,1,,0.00,0,,303
2012-10-20,72,48,24,32,19,11,57,34,11,30.02,29.88,29.75,10,10,10,20,3,26,0.00,0,,221
2012-10-21,69,52,39,35,26,23,62,39,19,29.92,29.83,29.77,10,10,10,16,5,28,0.00,1,,215
2012-10-22,64,46,28,36,29,21,79,56,29,29.99,29.87,29.81,10,10,10,16,3,29,0.00,0,,222
2012-10-23,69,57,46,37,25,18,68,31,15,29.89,29.81,29.75,10,10,10,22,12,34,0.00,0,,206
2012-10-24,66,54,39,35,21,10,59,31,13,29.87,29.75,29.64,10,10,10,30,12,45,0.00,0,,207
2012-10-25,55,37,19,14,9,4,60,31,12,30.12,30.04,29.89,10,10,10,20,5,26,0.00,0,,297
2012-10-26,50,33,18,11,2,-8,60,30,12,30.30,30.22,30.12,10,10,10,12,6,,0.00,0,,84
2012-10-27,63,38,15,3,-3,-6,39,22,8,30.26,30.16,30.04,10,10,10,12,1,,0.00,0,,83
2012-10-28,68,44,23,12,6,0,44,26,9,30.25,30.14,30.02,10,10,10,7,1,,0.00,0,,250
2012-10-29,69,45,21,10,6,3,46,25,8,30.31,30.18,30.10,10,10,10,14,3,23,0.00,0,,269
2012-10-30,70,47,25,15,11,5,45,27,12,30.26,30.12,30.04,10,10,10,14,2,17,0.00,0,,228
2012-10-31,69,46,23,15,12,9,55,32,11,30.30,30.12,30.02,10,10,10,12,2,,0.00,0,,194